Location: Jarosław
(50.0191°N, 22.6835°E)
Time: 07:19:17
(UTC+02:00)

ISS - Visible Passes

Search period start: 20 September 2018 00:00
Search period end: 30 September 2018 00:00
Orbit: 402 x 408 km, 51.6° (Epoch: 20 September)

Date Brightness Start Highest point End Pass type
(mag) Time Alt. Az. Time Alt. Az. Time Alt. Az.
22 Sep -1.7 20:27:33 10° SSW 20:28:33 17° SSW 20:28:33 17° SSW visible
23 Sep -2.4 19:36:08 10° SSW 19:38:42 21° SE 19:39:12 20° SE visible
23 Sep -0.9 21:11:33 10° WSW 21:11:54 12° WSW 21:11:54 12° WSW visible
24 Sep -3.3 20:19:37 10° SW 20:22:20 48° SSW 20:22:20 48° SSW visible
25 Sep -3.2 19:27:50 10° SW 19:30:55 38° SSE 19:32:36 21° E visible
25 Sep -1.4 21:04:01 10° W 21:05:17 21° W 21:05:17 21° W visible
26 Sep -4.0 20:11:56 10° WSW 20:15:14 89° S 20:15:26 79° ENE visible
27 Sep -3.8 19:19:56 10° WSW 19:23:12 66° SSE 19:25:29 18° ENE visible
27 Sep -1.7 20:56:28 10° W 20:58:09 27° WNW 20:58:09 27° WNW visible
28 Sep -3.7 20:04:21 10° W 20:07:39 70° N 20:08:07 57° NE visible
29 Sep -3.8 19:12:13 10° WSW 19:15:32 84° NNW 19:18:02 16° ENE visible
29 Sep -1.8 20:48:53 10° WNW 20:50:42 29° WNW 20:50:42 29° WNW visible
